Ellensburg, WA

3:09 PM PST on November 20, 2017 (GMT -0800)
Bowers

Weather History for KELN - May, 2014

Change the Weather History Date:

Friday, May 9, 2014

  Actual Average (KYKM) Record (KYKM)
Temperature  
Mean Temperature 49 °F -  
Max Temperature 59 °F 71 °F 95 °F (1949)
Min Temperature 41 °F 41 °F 27 °F (1999)
Degree Days  
Heating Degree Days 16    
Moisture  
Dew Point 37 °F    
Average Humidity 59    
Maximum Humidity 82    
Minimum Humidity 44    
Precipitation  
Precipitation 0.01 in - - ()
Sea Level Pressure  
Sea Level Pressure 29.82 in    
Wind  
Wind Speed 16 mph (NW)    
Max Wind Speed 24 mph    
Max Gust Speed 32 mph    
Visibility 10 miles    
Events Rain    
Averages and records for this station are not official NWS values.
T = Trace of Precipitation, MM = Missing Value Source: NWS Daily Summary

Daily Weather History Graph

Daily Weather History Graph

Search for Another Location

Airport or City:

Trip Planner

Search our weather history database for the weather conditions in past years. The results will help you decide how hot, cold, wet, or windy it might be!

Date:

Astronomy

May. 09, 2014 Rise Set
Actual Time 5:34 AM PDT 8:23 PM PDT
Civil Twilight 4:59 AM PDT 8:58 PM PDT
Nautical Twilight 4:14 AM PDT 9:43 PM PDT
Astronomical Twilight 3:21 AM PDT 10:37 PM PDT
Moon 3:06 PM PDT (5/9) 3:00 AM PDT (5/9)
Length of Visible Light 15h 59m
Length of Day
14h 49m
Waxing Gibbous, 74% of the Moon is Illuminated
May 9
Waxing Gibbous
May 14
Full
May 21
Last Quarter
May 28
New
Jun 5
First Quarter

Hourly Weather History & Observations

Time (PDT) Temp. Windchill Dew Point Humidity Pressure Visibility Wind Dir Wind Speed Gust Speed Precip Events Conditions
12:53 AM 50.0 °F - 42.1 °F 74% 29.67 in 10.0 mi WNW 13.8 mph - 0.00 in   Overcast
1:53 AM 48.9 °F - 39.9 °F 71% 29.69 in 10.0 mi WNW 16.1 mph - N/A   Mostly Cloudy
2:53 AM 46.9 °F - 39.0 °F 74% 29.70 in 10.0 mi WNW 17.3 mph - N/A   Clear
3:53 AM 45.0 °F 42.6 °F 37.9 °F 76% 29.73 in 10.0 mi WNW 4.6 mph - N/A   Partly Cloudy
4:53 AM 41.0 °F 38.0 °F 36.0 °F 82% 29.75 in 10.0 mi SW 4.6 mph - N/A   Clear
5:53 AM 45.0 °F 38.2 °F 37.0 °F 74% 29.76 in 10.0 mi WNW 15.0 mph - N/A   Clear
6:53 AM 50.0 °F - 37.9 °F 63% 29.78 in 10.0 mi NW 17.3 mph - N/A   Mostly Cloudy
8:53 AM 51.1 °F - 36.0 °F 56% 29.81 in 10.0 mi NW 18.4 mph 26.5 mph N/A   Mostly Cloudy
9:53 AM 55.0 °F - 37.0 °F 51% 29.82 in 10.0 mi NW 23.0 mph 31.1 mph N/A   Scattered Clouds
10:53 AM 55.0 °F - 35.1 °F 47% 29.83 in 10.0 mi WNW 20.7 mph 31.1 mph N/A   Partly Cloudy
11:53 AM 55.0 °F - 35.1 °F 47% 29.84 in 10.0 mi WNW 17.3 mph 25.3 mph N/A   Scattered Clouds
12:07 PM 57.0 °F - 36.0 °F 45% 29.83 in 2.0 mi WNW 19.6 mph 25.3 mph N/A   Haze
12:16 PM 57.0 °F - 37.0 °F 47% 29.84 in 10.0 mi WNW 20.7 mph - N/A   Overcast
12:53 PM 54.0 °F - 39.9 °F 59% 29.85 in 8.0 mi NW 18.4 mph 32.2 mph 0.00 in Rain Light Rain
1:53 PM 57.0 °F - 37.9 °F 49% 29.85 in 10.0 mi WNW 18.4 mph 23.0 mph 0.01 in   Partly Cloudy
2:53 PM 57.9 °F - 36.0 °F 44% 29.85 in 10.0 mi NW 24.2 mph 32.2 mph N/A   Clear
3:53 PM 57.9 °F - 36.0 °F 44% 29.85 in 10.0 mi NW 19.6 mph - N/A   Clear
4:53 PM 53.1 °F - 36.0 °F 52% 29.87 in 10.0 mi NW 23.0 mph - N/A   Mostly Cloudy
5:53 PM 52.0 °F - 34.0 °F 50% 29.87 in 10.0 mi NNW 15.0 mph - N/A   Partly Cloudy
6:53 PM 52.0 °F - 34.0 °F 50% 29.86 in 10.0 mi NW 18.4 mph 27.6 mph N/A   Partly Cloudy
7:53 PM 50.0 °F - 35.1 °F 57% 29.88 in 10.0 mi NW 18.4 mph - N/A   Mostly Cloudy
8:53 PM 46.0 °F 41.0 °F 34.0 °F 63% 29.89 in 10.0 mi NW 10.4 mph - N/A   Clear
9:53 PM 46.0 °F 38.8 °F 35.1 °F 66% 29.90 in 10.0 mi NW 18.4 mph 26.5 mph N/A   Clear
10:53 PM 45.0 °F 38.2 °F 34.0 °F 65% 29.91 in 10.0 mi NW 15.0 mph - N/A   Clear
11:53 PM 45.0 °F 38.9 °F 35.1 °F 68% 29.92 in 10.0 mi NW 12.7 mph - N/A   Clear